Meath Environmental Platform

Observations

Time Sensor AQI SAQ Temp °C Hum % Pres Pa CO μg/m³ H₂S μg/m³ NO μg/m³ NO₂ μg/m³ O₃ μg/m³ SO₂ μg/m³ CO₂e PPM VOC PPM PM1 μg/m³ PM2.5 μg/m³ PM4 μg/m³ PM10 μg/m³ TPS µm
Tuesday 11 August 2026
00:18 Trim Market St 2 15.4 61 57,883 0.21 0 1.23 14.42 38.6 0 1.43 3.5 4.8
00:18 Trim Patrick St 2 14.2 67 82,857 0.18 5.35 2.78 27.94 18.58 0 2.86 7.54 8.3
00:17 Trim Market St 2 15.4 61 57,885 0.21 0 1.26 12.42 39.34 0 1.43 3 4.8
00:17 Trim Patrick St 2 14.2 66 82,585 0.18 6.47 2.68 28.84 16.02 0 3.71 7.56 8.31
00:16 Trim Market St 2 15.4 61 57,885 0.21 0 1.27 13.27 41.01 0 1.43 3 4.8
00:16 Trim Patrick St 2 14.2 67 82,335 0.16 6.34 3.13 39.47 10.76 0 2.86 6.82 7.51
00:15 Trim Market St 2 15.5 61 57,885 0.2 0 1.26 11.87 40.25 0 2.14 3.5 4.8
00:15 Trim Patrick St 2 14.2 66 81,976 0.16 5.17 2.97 32.94 14.1 0 2 6.83 7.51
00:14 Trim Market St 2 15.5 61 57,885 0.2 0 1.58 13.2 36.73 0 0.71 2 2.75
00:14 Trim Patrick St 2 14.2 66 81,738 0.16 5.04 3.01 30.25 15.43 0 3.71 7.56 8.31
00:13 Trim Market St 2 15.5 60 57,887 0.2 0 1.37 11.46 43.01 0 1.43 3 4.11
00:13 Trim Patrick St 2 14.3 66 81,545 0.16 5.25 3.05 30.64 15.65 0 2.86 7.56 8.31
00:12 Trim Market St 2 15.5 60 57,885 0.2 0 1.27 18.94 34.59 0 2.14 3.5 5.48
00:12 Trim Patrick St 2 14.3 66 81,315 0.16 5.4 3.1 31.99 14.49 0 2.86 6.1 6.71
00:11 Trim Market St 2 15.5 60 57,887 0.19 0 1.22 13.16 38.61 0 0.71 2.51 3.43
00:11 Trim Patrick St 2 14.3 66 81,091 0.16 5.35 2.9 31.1 15.29 0 2.86 7.56 8.31
00:10 Trim Market St 2 15.5 60 57,889 0.2 0 1.18 12.33 34.58 0 2.14 3.51 4.79
00:10 Trim Patrick St 2 14.3 66 80,849 0.16 6.05 3.15 33.71 13.89 0 4.57 9.02 9.92
00:09 Trim Market St 2 15.6 60 57,891 0.2 0 1.16 13.8 40.65 0 0 2.01 2.74
00:09 Trim Patrick St 2 14.4 66 80,591 0.16 5.79 2.5 33.64 14.7 0 2.86 6.83 7.51